Time,TemperatureF,DewpointF,PressureIn,WindDirection,WindDirectionDegrees,WindSpeedMPH,WindSpeedGustMPH,Humidity,HourlyPrecipIn,Conditions,Clouds,dailyrainin,SolarRadiationWatts/m^2,SoftwareType,DateUTC
2013-09-26 00:00:00,42.0,41.0,-100.00,WNW,292,0.0,-999.0,96,-99.99,,,-99.99,0.000000,,2013-09-26 04:00:00,
2013-09-26 00:44:00,42.0,41.0,-100.00,WNW,292,0.0,-999.0,96,-99.99,,,-99.99,0.000000,,2013-09-26 04:44:00,
2013-09-26 00:54:00,42.0,41.0,-100.00,WNW,292,0.0,-999.0,96,-99.99,,,-99.99,0.000000,,2013-09-26 04:54:00,
2013-09-26 01:00:00,42.0,41.0,-100.00,NW,315,1.0,-999.0,97,-99.99,,,-99.99,0.000000,,2013-09-26 05:00:00,
2013-09-26 01:43:00,42.0,41.0,-100.00,NW,315,1.0,-999.0,97,-99.99,,,-99.99,0.000000,,2013-09-26 05:43:00,
2013-09-26 01:52:00,42.0,41.0,-100.00,NW,315,1.0,-999.0,97,-99.99,,,-99.99,0.000000,,2013-09-26 05:52:00,
2013-09-26 02:00:00,42.0,41.0,-100.00,SSW,202,1.0,-999.0,97,-99.99,,,-99.99,0.000000,,2013-09-26 06:00:00,
2013-09-26 02:42:00,42.0,41.0,-100.00,SSW,202,1.0,-999.0,97,-99.99,,,-99.99,0.000000,,2013-09-26 06:42:00,
2013-09-26 02:53:00,42.0,41.0,-100.00,SSW,202,1.0,-999.0,97,-99.99,,,-99.99,0.000000,,2013-09-26 06:53:00,
2013-09-26 03:00:00,42.0,41.0,-100.00,SSW,202,1.0,-999.0,97,-99.99,,,-99.99,0.000000,,2013-09-26 07:00:00,
2013-09-26 03:42:00,42.0,41.0,-100.00,SSW,202,1.0,-999.0,97,-99.99,,,-99.99,0.000000,,2013-09-26 07:42:00,
2013-09-26 03:53:00,42.0,41.0,-100.00,SSW,202,1.0,-999.0,97,-99.99,,,-99.99,0.000000,,2013-09-26 07:53:00,
2013-09-26 04:00:00,42.0,42.0,-100.00,NW,315,1.0,-999.0,98,-99.99,,,-99.99,0.000000,,2013-09-26 08:00:00,
2013-09-26 04:42:00,42.0,42.0,-100.00,NW,315,1.0,-999.0,98,-99.99,,,-99.99,0.000000,,2013-09-26 08:42:00,
2013-09-26 04:52:00,42.0,42.0,-100.00,NW,315,1.0,-999.0,98,-99.99,,,-99.99,0.000000,,2013-09-26 08:52:00,
2013-09-26 05:00:00,41.0,40.0,-100.00,WSW,247,1.0,-999.0,98,-99.99,,,-99.99,0.000000,,2013-09-26 09:00:00,
2013-09-26 05:43:00,41.0,40.0,-100.00,WSW,247,1.0,-999.0,98,-99.99,,,-99.99,0.000000,,2013-09-26 09:43:00,
2013-09-26 05:54:00,41.0,40.0,-100.00,WSW,247,1.0,-999.0,98,-99.99,,,-99.99,0.000000,,2013-09-26 09:54:00,
2013-09-26 06:00:00,40.0,40.0,-100.00,ESE,112,0.0,-999.0,98,-99.99,,,-99.99,0.000000,,2013-09-26 10:00:00,
2013-09-26 06:42:00,40.0,40.0,-100.00,ESE,112,0.0,-999.0,98,-99.99,,,-99.99,0.000000,,2013-09-26 10:42:00,
2013-09-26 06:53:00,40.0,40.0,-100.00,ESE,112,0.0,-999.0,98,-99.99,,,-99.99,0.000000,,2013-09-26 10:53:00,
2013-09-26 07:00:00,40.0,40.0,-100.00,NW,315,1.0,-999.0,98,-99.99,,,-99.99,0.000000,,2013-09-26 11:00:00,
2013-09-26 07:42:00,40.0,40.0,-100.00,NW,315,1.0,-999.0,98,-99.99,,,-99.99,0.000000,,2013-09-26 11:42:00,
2013-09-26 07:52:00,40.0,40.0,-100.00,NW,315,1.0,-999.0,98,-99.99,,,-99.99,0.000000,,2013-09-26 11:52:00,
2013-09-26 08:00:00,40.0,39.0,-100.00,West,270,1.0,-999.0,98,-99.99,,,-99.99,4.640000,,2013-09-26 12:00:00,
2013-09-26 08:42:00,40.0,39.0,-100.00,West,270,1.0,-999.0,98,-99.99,,,-99.99,4.640000,,2013-09-26 12:42:00,
2013-09-26 08:52:00,40.0,39.0,-100.00,West,270,1.0,-999.0,98,-99.99,,,-99.99,4.640000,,2013-09-26 12:52:00,
2013-09-26 09:00:00,43.0,42.0,-100.00,SSW,202,1.0,-999.0,97,-99.99,,,-99.99,110.199997,,2013-09-26 13:00:00,
2013-09-26 09:42:00,43.0,42.0,-100.00,SSW,202,1.0,-999.0,97,-99.99,,,-99.99,110.199997,,2013-09-26 13:42:00,
2013-09-26 09:52:00,43.0,42.0,-100.00,SSW,202,1.0,-999.0,97,-99.99,,,-99.99,110.199997,,2013-09-26 13:52:00,
2013-09-26 10:00:00,50.0,49.0,-100.00,East,90,1.0,-999.0,98,-99.99,,,-99.99,267.959991,,2013-09-26 14:00:00,
2013-09-26 10:42:00,50.0,49.0,-100.00,East,90,1.0,-999.0,98,-99.99,,,-99.99,267.959991,,2013-09-26 14:42:00,
2013-09-26 10:52:00,50.0,49.0,-100.00,East,90,1.0,-999.0,98,-99.99,,,-99.99,267.959991,,2013-09-26 14:52:00,
2013-09-26 11:00:00,59.0,56.0,-100.00,SSE,157,1.0,-999.0,87,-99.99,,,-99.99,411.799988,,2013-09-26 15:00:00,
2013-09-26 11:44:00,59.0,56.0,-100.00,SSE,157,1.0,-999.0,87,-99.99,,,-99.99,411.799988,,2013-09-26 15:44:00,
2013-09-26 11:54:00,59.0,56.0,-100.00,SSE,157,1.0,-999.0,87,-99.99,,,-99.99,411.799988,,2013-09-26 15:54:00,
2013-09-26 12:00:00,63.0,57.0,-100.00,SSE,157,4.0,-999.0,81,-99.99,,,-99.99,510.399994,,2013-09-26 16:00:00,
2013-09-26 12:43:00,63.0,57.0,-100.00,SSE,157,4.0,-999.0,81,-99.99,,,-99.99,510.399994,,2013-09-26 16:43:00,
2013-09-26 12:54:00,63.0,57.0,-100.00,SSE,157,4.0,-999.0,81,-99.99,,,-99.99,510.399994,,2013-09-26 16:54:00,
2013-09-26 13:00:00,66.0,56.0,-100.00,South,180,4.0,-999.0,70,-99.99,,,-99.99,640.320007,,2013-09-26 17:00:00,
2013-09-26 13:43:00,66.0,56.0,-100.00,South,180,4.0,-999.0,70,-99.99,,,-99.99,640.320007,,2013-09-26 17:43:00,
2013-09-26 13:52:00,66.0,56.0,-100.00,South,180,4.0,-999.0,70,-99.99,,,-99.99,640.320007,,2013-09-26 17:52:00,
2013-09-26 14:00:00,68.0,53.0,-100.00,South,180,6.0,-999.0,58,-99.99,,,-99.99,656.559998,,2013-09-26 18:00:00,
2013-09-26 14:42:00,68.0,53.0,-100.00,South,180,6.0,-999.0,58,-99.99,,,-99.99,656.559998,,2013-09-26 18:42:00,
2013-09-26 14:52:00,68.0,53.0,-100.00,South,180,6.0,-999.0,58,-99.99,,,-99.99,656.559998,,2013-09-26 18:52:00,
2013-09-26 15:00:00,68.0,51.0,-100.00,South,180,6.0,-999.0,54,-99.99,,,-99.99,636.840027,,2013-09-26 19:00:00,
2013-09-26 15:44:00,68.0,51.0,-100.00,South,180,6.0,-999.0,54,-99.99,,,-99.99,636.840027,,2013-09-26 19:44:00,
2013-09-26 15:52:00,68.0,51.0,-100.00,South,180,6.0,-999.0,54,-99.99,,,-99.99,636.840027,,2013-09-26 19:52:00,
2013-09-26 16:00:00,68.0,52.0,-100.00,SSE,157,7.0,-999.0,55,-99.99,,,-99.99,557.960022,,2013-09-26 20:00:00,
2013-09-26 16:43:00,68.0,52.0,-100.00,SSE,157,7.0,-999.0,55,-99.99,,,-99.99,557.960022,,2013-09-26 20:43:00,
2013-09-26 16:52:00,68.0,52.0,-100.00,SSE,157,7.0,-999.0,55,-99.99,,,-99.99,557.960022,,2013-09-26 20:52:00,
2013-09-26 17:00:00,67.0,52.0,-100.00,SSE,157,7.0,-999.0,58,-99.99,,,-99.99,448.920013,,2013-09-26 21:00:00,
2013-09-26 17:44:00,67.0,52.0,-100.00,SSE,157,7.0,-999.0,58,-99.99,,,-99.99,448.920013,,2013-09-26 21:44:00,
2013-09-26 17:54:00,67.0,52.0,-100.00,SSE,157,7.0,-999.0,58,-99.99,,,-99.99,448.920013,,2013-09-26 21:54:00,
2013-09-26 18:00:00,66.0,53.0,-100.00,SSE,157,6.0,-999.0,62,-99.99,,,-99.99,286.519989,,2013-09-26 22:00:00,
2013-09-26 18:43:00,66.0,53.0,-100.00,SSE,157,6.0,-999.0,62,-99.99,,,-99.99,286.519989,,2013-09-26 22:43:00,
2013-09-26 18:54:00,66.0,53.0,-100.00,SSE,157,6.0,-999.0,62,-99.99,,,-99.99,286.519989,,2013-09-26 22:54:00,
2013-09-26 19:00:00,63.0,54.0,-100.00,SE,135,5.0,-999.0,71,-99.99,,,-99.99,88.160004,,2013-09-26 23:00:00,
2013-09-26 19:43:00,63.0,54.0,-100.00,SE,135,5.0,-999.0,71,-99.99,,,-99.99,88.160004,,2013-09-26 23:43:00,
2013-09-26 19:53:00,63.0,54.0,-100.00,SE,135,5.0,-999.0,71,-99.99,,,-99.99,88.160004,,2013-09-26 23:53:00,
2013-09-26 20:00:00,59.0,53.0,-100.00,SSE,157,2.0,-999.0,81,-99.99,,,-99.99,9.280000,,2013-09-27 00:00:00,
2013-09-26 20:43:00,59.0,53.0,-100.00,SSE,157,2.0,-999.0,81,-99.99,,,-99.99,9.280000,,2013-09-27 00:43:00,
2013-09-26 20:52:00,59.0,53.0,-100.00,SSE,157,2.0,-999.0,81,-99.99,,,-99.99,9.280000,,2013-09-27 00:52:00,
2013-09-26 21:00:00,54.0,52.0,-100.00,SE,135,1.0,-999.0,93,-99.99,,,-99.99,0.000000,,2013-09-27 01:00:00,
2013-09-26 21:42:00,54.0,52.0,-100.00,SE,135,1.0,-999.0,93,-99.99,,,-99.99,0.000000,,2013-09-27 01:42:00,
2013-09-26 21:52:00,54.0,52.0,-100.00,SE,135,1.0,-999.0,93,-99.99,,,-99.99,0.000000,,2013-09-27 01:52:00,
2013-09-26 22:00:00,51.0,49.0,-100.00,SE,135,0.0,-999.0,95,-99.99,,,-99.99,0.000000,,2013-09-27 02:00:00,
2013-09-26 22:43:00,51.0,49.0,-100.00,SE,135,0.0,-999.0,95,-99.99,,,-99.99,0.000000,,2013-09-27 02:43:00,
2013-09-26 22:53:00,51.0,49.0,-100.00,SE,135,0.0,-999.0,95,-99.99,,,-99.99,0.000000,,2013-09-27 02:53:00,
2013-09-26 23:00:00,47.0,46.0,-100.00,East,90,0.0,-999.0,96,-99.99,,,-99.99,0.000000,,2013-09-27 03:00:00,
2013-09-26 23:45:00,47.0,46.0,-100.00,East,90,0.0,-999.0,96,-99.99,,,-99.99,0.000000,,2013-09-27 03:45:00,
2013-09-26 23:55:00,47.0,46.0,-100.00,East,90,0.0,-999.0,96,-99.99,,,-99.99,0.000000,,2013-09-27 03:55:00,